{"data":{"norad_id":64716,"epoch":"2026-05-25T04:42:20.472192Z","epoch_age_seconds":61243,"freshness":"FRESH","line1":"1 64716U 25142W   26145.19607028  .00004122  00000+0  35296-3 0  9995","line2":"2 64716  69.9995 121.4378 0004027 266.2079  93.8619 14.98339844 50929","mean_motion":14.98339844,"eccentricity":0.0004027,"inclination_deg":69.9995,"raan_deg":121.4378,"arg_perigee_deg":266.2079,"mean_anomaly_deg":93.8619,"bstar":0.00035296,"rev_number":5092,"period_min":96.10636770866,"perigee_km":569.22661893476,"apogee_km":574.82427977147,"semimajor_km":6950.1624493531,"source":"CELESTRAK","updated_at":"2026-05-25T13:38:20.516736Z"}}